Date,TemperatureHighF,TemperatureAvgF,TemperatureLowF,DewpointHighF,DewpointAvgF,DewpointLowF,HumidityHigh,HumidityAvg,HumidityLow,PressureMaxIn,PressureMinIn,WindSpeedMaxMPH,WindSpeedAvgMPH,GustSpeedMaxMPH,PrecipitationSumIn
2013-6-1,97,84,78,74,73,71,83,69,47,29.92,29.92,17,6,17,0.00
2013-6-2,84,78,72,73,67,63,82,69,55,29.92,29.92,12,2,13,1.16
2013-6-3,73,68,65,66,63,61,88,83,75,29.92,29.92,2,0,2,0.00
2013-6-4,72,71,71,64,64,64,79,78,77,29.92,29.92,0,0,0,0.00
2013-6-6,71,70,69,68,66,65,90,89,87,29.92,29.92,9,2,9,0.97
2013-6-7,85,74,67,67,64,59,93,72,44,29.92,29.92,9,1,9,0.01
2013-6-8,90,78,66,71,65,62,89,67,42,29.92,29.92,11,2,11,0.00
2013-6-9,92,78,70,75,69,66,88,75,51,29.92,29.92,24,2,24,0.00
2013-6-10,95,82,70,73,70,66,90,70,46,29.92,29.92,8,2,8,0.00
2013-6-11,97,84,74,76,73,70,89,71,47,29.92,29.92,11,2,11,0.00
2013-6-12,97,85,74,76,73,69,89,69,45,29.92,29.92,10,3,10,0.00
2013-6-13,99,86,75,75,73,71,89,67,42,29.92,29.92,8,2,8,0.00
2013-6-14,99,87,76,78,74,71,86,66,44,29.92,29.92,6,1,6,0.00
2013-6-15,98,86,76,77,73,70,85,66,46,29.92,29.92,14,2,14,0.02
2013-6-16,99,86,77,76,72,69,86,66,42,29.92,29.92,11,3,11,0.00
2013-6-17,94,84,77,75,73,68,86,69,49,29.92,29.92,19,3,19,0.01
2013-6-18,91,82,74,76,72,68,90,75,52,29.92,29.92,11,3,11,0.92
2013-6-19,90,80,72,77,72,68,93,79,59,29.92,29.92,12,1,12,0.00
2013-6-20,96,85,75,76,73,70,89,69,46,29.92,29.92,14,3,14,0.00
2013-6-21,84,78,75,76,72,71,89,84,72,29.92,29.92,8,0,8,0.00
2013-6-22,98,87,76,75,72,70,84,64,43,29.92,29.92,11,3,11,0.00
2013-6-23,98,86,76,76,72,70,84,65,43,29.92,29.92,11,3,11,0.00
2013-6-24,96,86,78,78,73,71,83,66,47,29.92,29.92,13,4,13,0.01
2013-6-25,85,80,77,74,73,72,86,79,69,29.92,29.92,11,3,11,0.00
2013-6-26,100,88,77,76,73,71,86,64,41,29.92,29.92,15,5,15,0.00
2013-6-27,101,88,76,75,72,69,86,62,39,29.92,29.92,11,3,11,0.00
2013-6-28,104,88,76,74,72,70,83,61,38,29.92,29.92,11,3,11,0.00
2013-6-29,102,90,76,74,69,62,81,53,31,29.92,29.92,14,3,14,0.01
2013-6-30,96,83,69,65,60,56,76,48,27,29.92,29.92,13,2,13,0.02